Regional Weather Roundup
Issued by NWS

Home | Current Version | Previous Version | Text Only | Print | Product List | Glossary Off
Versions: 1 2 3 4 5 6 7 8 9 10 11 12 13 14 15 16 17 18 19 20 21 22 23 24 25 26 27 28 29 30 31 32 33 34 35 36 37 38 39 40 41 42 43 44 45 46 47 48 49 50

653
ASUS43 KFSD 221310
RWRSD

WEATHER ROUNDUP FOR SOUTH DAKOTA
NATIONAL WEATHER SERVICE SIOUX FALLS SD
800 AM CDT SUN APR 22 2018

NOTE: "FAIR" INDICATES FEW OR NO CLOUDS BELOW 12,000 FEET WITH NO
SIGNIFICANT WEATHER AND/OR OBSTRUCTIONS TO VISIBILITY.


SDZ001>005-009-010-012>017-221400-
NORTHWEST AND NORTH CENTRAL SOUTH DAKOTA

CITY           SKY/WX    TMP DP  RH WIND       PRES   REMARKS
BUFFALO          N/A     36  33  89 W3        30.07R
FAITH            N/A     37  36  96 S17       30.15R
MOBRIDGE       MOSUNNY   38  34  85 SE6       30.20R
$$

SDZ012>016-024>037-041>051-057-063-072>074-221400-
SOUTHWEST AND SOUTH CENTRAL SOUTH DAKOTA

CITY           SKY/WX    TMP DP  RH WIND       PRES   REMARKS
RAPID CTY ARPT SUNNY     34  31  88 E3        30.16R
PIERRE         SUNNY     37  34  89 SE5       30.22R
CUSTER         CLEAR     32  29  88 N5        30.16R WCI  27
ELLSWORTH AFB  SUNNY    N/A N/A N/A CALM      30.16R
PHILIP         SUNNY     38  36  92 VRB3      30.20R
PINE RIDGE     PTSUNNY   38  37  97 S10       30.18R
SPEARFISH      FAIR      39  32  75 W6        30.17R
WINNER         FAIR      39  33  79 CALM      30.24R
$$

SDZ004>011-016>023-039-040-221400-
NORTHEAST SOUTH DAKOTA

CITY           SKY/WX    TMP DP  RH WIND       PRES   REMARKS
ABERDEEN       SUNNY     37  33  85 S8        30.27S
WATERTOWN      CLOUDY    38  33  82 S7        30.29R
BROOKINGS      CLOUDY    40  34  79 SE8       30.31R
SISSETON         N/A     36  33  89 SE7       30.28F
$$

SDZ017-020-022-023-036>040-048>070-221400-
SOUTHEAST SOUTH DAKOTA

CITY           SKY/WX    TMP DP  RH WIND       PRES   REMARKS
SIOUX FALLS    MOSUNNY   39  34  82 NE6       30.30R
HURON          CLOUDY    39  34  82 SE8       30.27F
CHAMBERLAIN    MOSUNNY   39  39 100 CALM      30.26R FOG
MITCHELL       MOSUNNY   39  36  89 SE6       30.30R
$$

ABBREVIATIONS USED IN REMARKS
   TC - TEMPERATURE IN CELSIUS
  WCI - WIND CHILL INDEX
   HX - HEAT INDEX
  VSB - VISIBILITY





USA.gov is the U.S. government's official web portal to all federal, state and local government web resources and services.